Yellowstone, WY

9:42 PM MDT on April 18, 2019 (GMT -0600)
Yellowstone

Weather History for KP60 - May, 2016

Change the Weather History Date:

Monday, May 9, 2016

  Actual Average Record
Temperature  
Mean Temperature 39 °F 38 °F  
Max Temperature 50 °F 49 °F 64 °F (2007)
Min Temperature 27 °F 27 °F 9 °F (2002)
Degree Days  
Heating Degree Days 26 27  
Month to date heating degree days 208 253  
Since 1 July heating degree days 10203 10504  
Cooling Degree Days 0 0  
Month to date cooling degree days 0 0  
Year to date cooling degree days 0 0  
Moisture  
Dew Point 26 °F    
Average Humidity 58    
Maximum Humidity 92    
Minimum Humidity 23    
Precipitation  
Precipitation 0.12 in 0.07 in 0.69 in (2014)
Month to date precipitation 0.12 0.63  
Year to date precipitation 6.37 7.44  
Sea Level Pressure  
Sea Level Pressure 29.60 in    
Wind  
Wind Speed 5 mph (WSW)    
Max Wind Speed 18 mph    
Max Gust Speed 36 mph    
T = Trace of Precipitation, MM = Missing Value Source: NWS Daily Summary

Daily Weather History Graph

Daily Weather History Graph

Search for Another Location

Airport or City:

Astronomy

May. 09, 2016 Rise Set
Actual Time 6:00 AM MDT 8:36 PM MDT
Civil Twilight 5:27 AM MDT 9:09 PM MDT
Nautical Twilight 4:45 AM MDT 9:51 PM MDT
Astronomical Twilight 3:58 AM MDT 10:39 PM MDT
Moon 8:47 AM MDT (5/9) 11:54 PM MDT (5/9)
Length of Visible Light 15h 42m
Length of Day
14h 36m
Waxing Crescent, 12% of the Moon is Illuminated
May 9
Waxing Crescent
May 13
First Quarter
May 21
Full
May 29
Last Quarter
Jun 4
New

Hourly Weather History & Observations

Time (MDT) Temp. Windchill Dew Point Humidity Pressure Visibility Wind Dir Wind Speed Gust Speed Precip Events Conditions
12:56 AM 42.1 °F 40.2 °F 36.0 °F 79% 29.53 in - Variable 3.5 mph - N/A   Unknown
1:56 AM 39.9 °F - 36.0 °F 86% 29.55 in - Calm Calm - N/A   Unknown
2:56 AM 39.9 °F - 36.0 °F 86% 29.52 in - Calm Calm - N/A   Unknown
3:56 AM 37.0 °F - 34.0 °F 89% 29.53 in - Calm Calm - N/A   Unknown
4:56 AM 35.1 °F - 30.9 °F 85% 29.55 in - Calm Calm - N/A   Unknown
5:56 AM 34.0 °F - 30.9 °F 89% 29.55 in - Calm Calm - N/A   Unknown
6:56 AM 34.0 °F - 30.9 °F 89% 29.55 in - Calm Calm - N/A   Unknown
7:56 AM 39.9 °F - 35.1 °F 83% 29.54 in - Calm Calm - N/A   Unknown
8:56 AM 39.0 °F - 35.1 °F 86% 29.54 in - Calm Calm - N/A   Unknown
9:56 AM 39.0 °F 36.8 °F 37.0 °F 93% 29.57 in - Variable 3.5 mph - 0.06 in   Unknown
10:56 AM 42.1 °F 39.2 °F 37.0 °F 82% 29.55 in - Variable 4.6 mph - 0.01 in   Unknown
11:56 AM 46.9 °F - 27.0 °F 46% 29.56 in - Variable 6.9 mph - N/A   Unknown
12:56 PM 48.0 °F - 19.9 °F 33% 29.56 in - West 11.5 mph 23.0 mph N/A   Unknown
1:56 PM 50.0 °F - 19.0 °F 29% 29.57 in - West 9.2 mph 21.9 mph N/A   Unknown
2:56 PM 48.9 °F - 12.9 °F 24% 29.57 in - West 10.4 mph 31.1 mph N/A   Unknown
3:56 PM 46.9 °F - 17.1 °F 30% 29.60 in - West 13.8 mph 26.5 mph N/A   Unknown
4:56 PM 44.1 °F 38.1 °F 12.9 °F 28% 29.65 in - West 11.5 mph 26.5 mph N/A   Unknown
5:56 PM 41.0 °F - 10.0 °F 28% 29.69 in - North - - N/A   Unknown
6:56 PM 39.9 °F 34.5 °F 6.1 °F 25% 29.68 in - West 8.1 mph 19.6 mph N/A   Unknown
7:56 PM 35.1 °F 29.3 °F 15.1 °F 44% 29.70 in - Variable 6.9 mph - N/A   Unknown
8:56 PM 33.1 °F 27.7 °F 23.0 °F 66% 29.73 in - Variable 5.8 mph - N/A   Unknown
9:56 PM 30.0 °F 26.5 °F 27.0 °F 88% 29.75 in - SSE 3.5 mph - 0.01 in   Unknown
10:56 PM 28.9 °F 25.2 °F 25.0 °F 85% 29.75 in - Variable 3.5 mph - 0.01 in   Unknown
11:56 PM 28.0 °F 21.7 °F 23.0 °F 81% 29.72 in - Variable 5.8 mph - 0.02 in   Unknown